DateTimeUTC,F1_A11,F1_S11,BsB_S11,BsG_S11,BsR_S11,BbsB_S11,BbsG_S11,BbsR_S11,BaB_A11,BaG_A11,BaR_A11,Tu_S11,T_S11,Uu_S11,U_S11,P_S11,T1_A11
2021-04-23T13:00:00Z,00000200,20000000,,,,,,,-000.01,0000.07,0000.25,19.1,26.1,01.5,01.0,0674.3,31.2
2021-04-23T13:01:00Z,00000200,20000000,,,,,,,0000.03,0000.18,-000.05,19.1,26.2,01.5,01.0,0674.3,31.2
2021-04-23T13:02:00Z,00000200,20000000,,,,,,,-000.09,-000.10,-000.33,19.1,26.2,01.5,01.0,0674.3,31.2
2021-04-23T13:03:00Z,00000200,60000000,,,,,,,0001.25,0000.74,0000.79,19.1,26.2,01.5,01.0,0674.3,31.2
2021-04-23T13:04:00Z,00000200,41000000,0002.51,0002.25,0001.84,0000.71,0000.39,0000.26,0000.75,0001.09,0000.82,19.2,26.0,01.5,01.0,0675.2,31.2
2021-04-23T13:05:00Z,00000200,01000000,0003.64,0002.30,0001.54,0001.08,0000.42,0000.53,0001.24,0001.08,0000.76,19.2,26.0,01.5,01.0,0675.3,31.2
2021-04-23T13:06:00Z,00000200,01000000,0003.65,0002.18,0001.72,0001.43,0000.40,0000.49,0001.27,0001.28,0000.98,19.2,26.0,01.5,01.0,0675.3,31.2
2021-04-23T13:07:00Z,00000200,01000000,0003.07,0002.16,0001.77,0000.91,0000.19,0000.54,0001.24,0001.15,0000.66,19.3,25.9,01.5,01.0,0675.3,31.2
2021-04-23T13:08:00Z,00000200,01000000,0003.40,0002.42,0001.40,0000.51,0000.38,0000.49,0000.91,0000.78,0000.93,19.3,25.9,01.5,01.0,0675.3,31.2
2021-04-23T13:09:00Z,00000200,01000000,0003.12,0002.40,0001.72,0000.95,0000.42,0000.45,0001.56,0000.98,0000.48,19.3,25.9,01.4,00.9,0675.3,31.2
2021-04-23T13:10:00Z,00000200,01000000,0003.08,0001.99,0001.33,0000.76,0000.57,0000.18,0000.60,0001.07,0000.93,19.3,25.9,01.5,01.0,0675.3,31.2
2021-04-23T13:11:00Z,00000200,01000000,0003.42,0002.28,0001.13,0000.44,0000.55,0000.27,0001.12,0000.98,0000.73,19.2,25.9,01.4,00.9,0675.4,31.2
2021-04-23T13:12:00Z,00000200,01000000,0002.75,0002.04,0000.82,0000.45,0000.36,0000.45,0001.07,0000.85,0000.74,19.3,25.9,01.4,00.9,0675.4,31.2
2021-04-23T13:13:00Z,00000200,01000000,0002.63,0002.12,0001.25,0000.81,0000.32,-000.01,0001.14,0000.61,0000.75,19.3,25.9,01.4,00.9,0675.4,31.2
2021-04-23T13:14:00Z,00000200,01000000,0002.82,0002.15,0001.60,0000.01,0000.39,0000.16,0000.83,0000.89,0000.36,19.3,25.9,01.4,00.9,0675.4,31.2
2021-04-23T13:15:00Z,00000200,01000000,0002.97,0001.86,0001.65,0000.35,0000.50,0000.36,0001.18,0001.25,0000.80,19.3,25.9,01.4,00.9,0675.4,31.2
2021-04-23T13:16:00Z,00000200,01000000,0002.99,0001.85,0001.37,0001.16,0000.14,0000.35,0000.93,0000.63,0000.51,19.3,25.9,01.3,00.9,0675.4,31.2
2021-04-23T13:17:00Z,00000200,01000000,0002.78,0001.94,0001.48,0001.04,0000.31,0000.49,0000.60,0001.14,0000.68,19.3,25.9,01.3,00.8,0675.5,31.2
2021-04-23T13:18:00Z,00000200,01000000,0002.42,0001.99,0000.83,0000.04,0000.46,0000.29,0001.25,0000.89,0000.83,19.3,25.9,01.2,00.8,0675.5,31.2
2021-04-23T13:19:00Z,00000200,01000000,0002.59,0002.09,0001.14,0001.09,0000.37,0000.29,0001.21,0000.77,0000.69,19.3,25.9,01.3,00.8,0675.5,31.2
2021-04-23T13:20:00Z,00000200,01000000,0003.07,0002.11,0001.20,0000.42,0000.47,0000.41,0000.88,0001.15,0000.89,19.3,25.9,01.2,00.8,0675.5,31.2
2021-04-23T13:21:00Z,00000200,01000000,0002.38,0002.11,0001.44,0000.80,0000.45,0000.44,0001.04,0000.91,0000.43,19.3,25.9,01.2,00.8,0675.5,31.2
2021-04-23T13:22:00Z,00000200,01000000,0002.68,0002.17,0001.33,0000.48,0000.51,0000.18,0001.37,0000.93,0000.94,19.3,25.9,01.3,00.9,0675.5,31.2
2021-04-23T13:23:00Z,00000200,01000000,0002.50,0001.85,0001.32,0000.51,0000.41,0000.21,0000.88,0001.11,0000.75,19.3,25.9,01.3,00.8,0675.6,31.2
2021-04-23T13:24:00Z,00000200,01000000,0002.49,0002.06,0001.44,0000.69,0000.47,0000.40,0001.10,0000.95,0000.67,19.3,25.9,01.2,00.8,0675.6,31.2
2021-04-23T13:25:00Z,00000200,01000000,0003.04,0001.96,0001.34,0000.50,0000.36,0000.43,0001.39,0001.01,0001.11,19.3,25.9,01.3,00.8,0675.6,31.2
2021-04-23T13:26:00Z,00000200,01000000,0002.82,0002.24,0001.55,0001.09,0000.37,0000.58,0001.11,0001.07,0000.94,19.3,25.9,01.4,00.9,0675.6,31.2
2021-04-23T13:27:00Z,00000200,01000000,0003.55,0001.83,0001.16,0000.60,0000.49,0000.15,0000.81,0000.74,0000.31,19.3,25.9,01.3,00.9,0675.6,31.2
2021-04-23T13:28:00Z,00000200,01000000,0003.15,0002.09,0001.19,0000.39,0000.22,0000.29,0001.34,0001.03,0000.67,19.3,25.9,01.3,00.9,0675.6,31.2
2021-04-23T13:29:00Z,00000200,01000000,0003.45,0001.85,0001.29,0000.63,0000.43,0000.30,0000.58,0001.17,0000.76,19.3,25.9,01.4,00.9,0675.6,31.2
2021-04-23T13:30:00Z,00000200,01000000,0002.91,0002.12,0001.47,0000.54,0000.45,0000.25,0001.59,0000.76,0000.80,19.3,25.9,01.3,00.8,0675.6,31.2
2021-04-23T13:31:00Z,00000200,01000000,0003.01,0002.13,0001.77,0001.10,0000.33,0000.71,0000.96,0000.98,0000.76,19.3,25.9,01.3,00.9,0675.6,31.2
2021-04-23T13:32:00Z,00000200,01000000,0003.66,0001.99,0001.18,0000.87,0000.23,0000.16,0001.11,0001.17,0001.04,19.3,25.9,01.4,00.9,0675.6,31.2
2021-04-23T13:33:00Z,00000200,01000000,0002.64,0002.09,0001.17,0000.67,0000.43,0000.29,0001.25,0000.98,0000.64,19.3,25.9,01.4,00.9,0675.6,31.2
2021-04-23T13:34:00Z,00000200,01000000,0002.89,0001.82,0001.20,0001.05,0000.16,0000.33,0001.01,0000.97,0001.01,19.3,25.9,01.4,01.0,0675.6,31.2
2021-04-23T13:35:00Z,00000200,01000000,0003.09,0002.15,0000.96,0000.37,0000.53,0000.09,0001.05,0000.87,0000.32,19.3,25.9,01.5,01.0,0675.6,31.2
2021-04-23T13:36:00Z,00000200,01000000,0002.96,0002.24,0001.41,0000.65,0000.22,0000.46,0001.14,0001.34,0000.99,19.3,25.9,01.5,01.0,0675.6,31.2
2021-04-23T13:37:00Z,00000200,01000000,0002.40,0001.84,0001.09,0000.65,0000.49,0000.03,0000.65,0000.13,0000.45,19.3,25.9,01.6,01.1,0675.6,31.2
2021-04-23T13:38:00Z,00000200,01000000,0002.16,0001.66,0001.07,0001.04,0000.23,0000.17,0001.38,0001.64,0000.95,19.3,25.9,01.4,01.0,0675.6,31.2
2021-04-23T13:39:00Z,00000200,01000000,0001.83,0001.00,0000.63,0000.36,0000.51,0000.03,0000.46,0000.49,0000.18,19.3,25.9,01.4,00.9,0675.6,31.2
2021-04-23T13:40:00Z,00000200,01000000,0002.44,0001.65,0000.97,0000.52,0000.27,0000.23,0001.06,0000.83,0000.80,19.3,25.9,01.4,01.0,0675.7,31.2
2021-04-23T13:41:00Z,00000200,01000000,0003.08,0001.59,0000.94,0000.55,0000.15,-000.03,0000.70,0000.65,0000.81,19.3,26.0,01.4,00.9,0675.6,31.2
2021-04-23T13:42:00Z,00000200,01000000,0002.29,0001.56,0000.92,0000.41,0000.20,0000.25,0001.05,0000.77,0000.38,19.3,25.9,01.4,01.0,0675.6,31.2
2021-04-23T13:43:00Z,00000200,01000000,0002.18,0001.29,0000.88,0000.64,0000.49,0000.37,0000.73,0000.45,0000.61,19.3,25.9,01.4,00.9,0675.7,31.2
2021-04-23T13:44:00Z,00000200,01000000,0002.01,0001.47,0000.87,0000.22,0000.38,0000.43,0000.64,0001.11,0000.56,19.3,25.9,01.4,00.9,0675.7,31.2
2021-04-23T13:45:00Z,00000200,01000000,0001.39,0001.34,0000.85,0000.47,0000.53,0000.21,0000.84,0000.54,0000.37,19.3,25.9,01.4,00.9,0675.7,31.2
2021-04-23T13:46:00Z,00000200,01000000,0002.31,0001.88,0001.02,0000.20,0000.29,0000.35,0001.16,0001.28,0000.65,19.3,25.9,01.4,00.9,0675.7,31.2
2021-04-23T13:47:00Z,00000200,01000000,0002.77,0001.91,0001.40,0000.97,0000.24,0000.41,0001.48,0000.82,0000.98,19.3,25.9,01.4,01.0,0675.7,31.2
2021-04-23T13:48:00Z,00000200,01000000,0002.83,0002.00,0001.23,0000.32,0000.14,0000.03,0000.84,0001.42,0001.05,19.3,25.9,01.6,01.1,0675.7,31.2
2021-04-23T13:49:00Z,00000200,01000000,0002.83,0002.05,0001.61,0000.26,0000.33,0000.33,0001.33,0000.80,0000.63,19.3,25.9,01.6,01.1,0675.7,31.2
2021-04-23T13:50:00Z,00000200,01000000,0002.53,0001.73,0001.06,0001.01,0000.29,0000.46,0000.17,0000.43,0000.34,19.3,25.9,01.6,01.1,0675.7,31.2
2021-04-23T13:51:00Z,00000200,01000000,0003.11,0001.55,0001.13,0000.76,0000.14,0000.29,0000.80,0000.69,0000.63,19.3,25.9,01.4,00.9,0675.7,31.2
2021-04-23T13:52:00Z,00000200,01000000,0002.41,0001.24,0000.79,0000.04,0000.54,0000.04,0000.90,0001.12,0000.72,19.3,25.9,01.5,01.0,0675.7,31.2
2021-04-23T13:53:00Z,00000200,01000000,0002.25,0001.40,0001.20,0000.74,0000.36,0000.20,0001.57,0000.96,0000.70,19.3,25.9,01.6,01.1,0675.7,31.2
2021-04-23T13:54:00Z,00000200,01000000,0002.26,0001.47,0001.05,0000.75,0000.25,0000.33,0000.78,0000.73,0000.51,19.3,25.9,01.6,01.1,0675.7,31.2
2021-04-23T13:55:00Z,00000200,01000000,0002.19,0001.94,0001.28,0000.37,0000.36,0000.35,0000.73,0000.68,0000.75,19.3,25.9,01.7,01.1,0675.8,31.2
2021-04-23T13:56:00Z,00000200,01000000,0002.04,0001.80,0001.01,0000.67,0000.01,0000.33,0001.24,0000.89,0000.77,19.3,26.0,01.6,01.1,0675.7,31.2
2021-04-23T13:57:00Z,00000200,40000000,,,,,,,0000.11,0000.26,0000.06,19.4,26.0,01.9,01.3,0675.7,31.2
2021-04-23T13:58:00Z,00000200,60000000,,,,,,,-000.27,0000.05,0000.02,19.1,26.1,01.6,01.1,0674.7,31.2
2021-04-23T13:59:00Z,00000200,20000000,,,,,,,0000.31,-000.14,0000.02,19.1,26.2,01.5,01.0,0674.7,31.2
